ONEWEB-0086, 45456

Orbit data source: Space-Track

ONEWEB-0086, 45456 is a payload satellite owned by One Web (UK) in LEO that was launched on Sat, 21 Mar 2020 UTC via a SOYUZ-2-1B launch vehicle from the Tyuratam Missile And Space Complex (TTMTR). Payload-class satellites include a variety of spacecraft equipped with specific instruments for various scientific and technological missions. These include communications satellites like Starlink; space stations such as the ISS; scientific satellites like the Hubble; Earth observation satellites from companies like Planet Labs, Umbra, and HawkEye 360; GPS; miniature CubeSats for education and research; and military/defense satellites.

Loading next visibility...
Identifier
45456, 2020-020AJ
Orbit
LEO
Last TLE update
20 hours ago
Origin
Manufacturer
One Web
Mission
Operational Commercial Communications
Bus & Motor
ARROW, Unknown motor
Mass
148 kg wet, ~140 kg dry
Launch date (UTC)
2020-03-21 (5 years ago)
Launch vehicle
SOYUZ-2-1B
Launch site
Tyuratam Missile And Space Complex (TTMTR)
Object type
Payload
Rocket body
Debris
Shape & HBR
Trap Box + 2 Pan, 5 m
Radar Cross Section
2.957 m², Large (>1 m²)

Expand to show TLE details & history

TLE from 20 hours ago
0 ONEWEB-0086
1 45456U 20020AJ  25128.47370901 -.00000131  00000-0 -40471-3 0  9993
2 45456  87.8806 101.7189 0001955  73.8290 286.3053 13.11412965249565
Epoch: 2025-05-08T11:22Z
Definitive object data (Epoch: 2025-05-08T11:22:08.458Z)
Latitude
-0.00002°
Longitude
64.63996°
Altitude
1,220.17 km
Speed
7.244 km/s
True Right ascension
06h 46m 52s
True Declination
0° 00' 00"
Sunlit
Object was in daylight at TLE epoch
Visualization TLE readout
Latitude
-58.57675°
Longitude
-112.06725°
Altitude
1,241.851 km
Speed
7.233 km/s
Apparent Right ascension
23h 42m 20s
Apparent Declination
-67° 01' 60"
Sunlit
Object is in daylight
Visualization observer readout
Local Sidereal Time
15:02:27
Azimuth
151.262° SSE
Elevation
-51.541°
Doppler factor
1
Orbital elements
Apogee altitude
1,216.301 km
Perigee altitude
1,213.332 km
Semi-major axis
7,592.953 km
Eccentricity
0.0001955
Inclination
87.8806°
RAAN
101.7189°
Arg. of periapsis
73.829°
True anomaly
286.2838°
Mean anomaly
286.3053°
Eccentric anomaly
286.29455°
Mean motion
3.2804 °/min
BSTAR
-0.00040471
Orbital period
109.74 mins
Loading maneuver chart data...
Loading SW <> Apogee altitude chart data...
Loading historical data...
Loading historical data...
Loading historical data...
Loading historical data...
Loading historical data...
Loading historical data...
Loading historical data...

ONEWEB-0086 Visibility forecast

Observer location: undefined°, undefined°

Span
Click to sort rows by Start time (UTC) header in descending order
Start Az.
Max El. time (UTC)
Max El. Az.
Max El.
End time (UTC)
End Az.
13 mins2025-05-09 09:56:32.532Z7.587° NNE2025-05-09 10:03:32.532Z98.664° ESE40.901°2025-05-09 10:09:32.532Z164.095° S
9 mins2025-05-09 11:48:32.532Z323.84° NNW2025-05-09 11:52:32.532Z283.569° WNW22.123°2025-05-09 11:57:32.532Z237.304° WSW
12 mins2025-05-09 22:16:32.532Z163.707° S2025-05-09 22:21:32.532Z100.158° ESE42.611°2025-05-09 22:28:32.532Z6.679° NNE
9 mins2025-05-10 00:08:32.532Z247.929° W2025-05-10 00:12:32.532Z287.171° WNW19.949°2025-05-10 00:17:32.532Z331.242° NNW
|